SCP
0 0 0 0 0 0 0 0 0 0 0 0 0 0 0 0 0 0 0 0 0 0 0 0 0 0 0 0 0 0 0 0 0 0 0 0 0 0 0 0 0 0 0
0 0 0 0 0 0 0 0 0 0 0 0 0 0 0 0 0 0 0 0 0 0 0 0 0 0 0 0 0 0 0 0 0 0 0 0 0 0 0 0 0 0 0
0 0 0 0 0 0 0 0 0 0 0 0 0 0 0 0 0 0 0 0 0 0 0 0 0 0 0 0 0 0 0 0 0 0 0 0 0 0 0 0 0 0 0
0 0 0 0 0 0 0 0 0 0 0 0 0 0 0 0 0 0 0 0 0 0 0 0 0 0 0 0 0 0 0 0 0 0 0 0 0 0 0 0 0 0 0
0 0 0 0 0 0 0 0 0 0 0 0 0 0 0 0 0 0 0 0 0 0 0 0 0 0 0 0 0 0 0 0 0 0 0 0 0 0 0 0 0 0 0
0 0 0 0 0 0 0 0 0 0 0 0 0 0 0 0 0 0 0 0 0 0 0 0 0 0 0 0 0 0 0 0 0 0 0 0 0 0 0 0 0 0 0
0 0 0 0 0 0 0 0 0 0 0 0 0 0 0 0 0 0 0 0 0 0 0 0 0 0 0 0 0 0 0 0 0 0 0 0 0 0 0 0 0 0 0
0 0 0 0 0 0 0 0 0 0 0 0 0 0 0 0 0 0 0 0 0 0 0 0 0 0 0 0 0 0 0 0 0 0 0 0 0 0 0 0 0 0 0
0 0 0 0 0 0 0 0 0 0 0 0 0 0 0 0 0 0 0 0 0 0 0 0 0 0 0 0 0 0 0 0 0 0 0 0 0 0 0 0 0 0 0
0 0 0 0 0 0 0 0 0 0 0 0 0 0 0 0 0 0 0 0 0 0 0 0 0 0 0 0 0 0 0 0 0 0 0 0 0 0 0 0 0 0 0
0 0 0 0 0 0 0 0 0 0 0 0 0 0 0 0 0 0 0 0 0 0 0 0 0 0 0 0 0 0 0 0 0 0 0 0 0 0 0 0 0 0 0
0 0 0 0 0 0 0 0 0 0 0 0 0 0 0 0 0 0 0 0 0 0 0 0 0 0 0 0 0 0 0 0 0 0 0 0 0 0 0 0 0 0 0
0 0 0 0 0 0 0 0 0 0 0 0 0 0 0 0 0 0 0 0 0 0 0 0 0 0 0 0 0 0 0 0 0 0 0 0 0 0 0 0 0 0 0
0 0 0 0 0 0 0 0 0 0 0 0 0 0 0 0 0 0 0 0 0 0 0 0 0 0 0 0 0 0 0 0 0 0 0 0 0 0 0 0 0 0 0
0 0 0 0 0 0 0 0 0 0 0 0 0 0 0 0 0 0 0 0 0 0 0 0 0 0 0 0 0 0 0 0 0 0 0 0 0 0 0 0 0 0 0
0 0 0 0 0 0 0 0 0 0 0 0 0 0 0 0 0 0 0 0 0 0 0 0 0 0 0 0 0 0 0 0 0 0 0 0 0 0 0 0 0 0 0
0 0 0 0 0 0 0 0 0 0 0 0 0 0 0 0 0 0 0 0 0 0 0 0 0 0 0 0 0 0 0 0 0 0 0 0 0 0 0 0 0 0 0
0 0 0 0 0 0 0 0 0 0 0 0 0 0 0 0 0 0 0 0 0 0 0 0 0 0 0 0 0 0 0 0 0 0 0 0 0 0 0 0 0 0 0
0 0 0 0 0 0 0 0 0 0 0 0 0 0 0 0 0 0 0 0 0 0 0 0 0 0 0 0 0 0 0 0 0 0 0 0 0 0 0 0 0 0 0
0 0 0 0 0 0 0 0 0 0 0 0 0 0 0 0 0 0 0 0 0 0 0 0 0 0 0 0 0 0 0 0 0 0 0 0 0 0 0 0 0 0 0
0 0 0 0 0 0 0 0 0 0 0 0 0 0 0 0 0 0 0 0 0 0 0 0 0 0 0 0 0 0 0 0 0 0 0 0 0 0 0 0 0 0 0
0 0 0 0 0 0 0 0 0 0 0 0 0 0 0 0 0 0 0 0 0 0 0 0 0 0 0 0 0 0 0 0 0 0 0 0 0 0 0 0 0 0 0
0 0 0 0 0 0 0 0 0 0 0 0 0 0 0 0 0 0 0 0 0 0 0 0 0 0 0 0 0 0 0 0 0 0 0 0 0 0 0 0 0 0 0
0 0 0 0 0 0 0 0 0 0 0 0 0 0 0 0 0 0 0 0 0 0 0 0 0 0 0 0 0 0 0 0 0 0 0 0 0 0 0 0 0 0 0
0 0 0 0 0 0 0 0 0 0 0 0 0 0 0 0 0 0 0 0 0 0 0 0 0 0 0 0 0 0 0 0 0 0 0 0 0 0 0 0 0 0 0
0 0 0 0 0 0 0 0 0 0 0 0 0 0 0 0 0 0 0 0 0 0 0 0 0 0 0 0 0 0 0 0 0 0 0 0 0 0 0 0 0 0 0
Wind_Speed_500mb
26 26 27 30 31 34 35 36 38 39 40 39 38 36 34 33 34 36 40 41 37 35 35 38 39 39 40 41 41 44 48 51 50 48 48 47 44 44 46 47 46 47 47
26 28 29 31 32 34 35 37 38 39 39 39 39 37 36 32 32 34 34 38 33 33 31 36 36 37 36 39 41 42 43 44 41 41 40 39 40 39 41 43 43 44 47
27 26 27 28 31 32 35 37 39 40 40 37 37 37 36 32 31 30 30 34 31 28 32 35 33 35 38 38 38 36 36 34 34 32 31 30 31 31 31 33 34 36 38
26 26 27 30 34 35 39 41 40 40 40 39 38 35 34 34 32 31 27 26 29 27 26 26 26 27 29 29 28 26 27 26 25 25 25 25 26 27 29 29 31 33 35
28 28 30 33 36 37 37 37 37 39 39 39 39 37 33 32 33 31 25 26 34 33 31 25 24 23 22 22 22 22 21 21 23 24 26 26 24 25 26 25 25 26 29
32 33 35 38 40 38 35 34 34 35 38 39 40 36 33 31 31 29 26 30 35 36 34 24 23 21 20 18 17 18 19 22 25 25 26 25 23 22 23 24 26 30 33
37 37 38 41 42 39 36 37 38 37 34 33 37 27 23 23 26 23 28 30 29 31 29 25 22 20 20 21 19 21 23 24 22 23 24 23 22 22 25 28 31 31 32
40 40 42 41 40 40 39 39 39 36 33 28 24 22 11 16 21 27 33 30 30 28 29 25 22 21 22 22 22 25 24 23 24 23 22 22 22 24 27 30 31 29 27
43 41 41 41 42 44 41 39 37 35 30 25 24 17 9 5 4 18 29 32 33 30 29 23 20 21 23 23 23 22 23 24 24 21 20 21 23 26 27 27 29 25 19
40 43 44 44 43 41 40 36 34 35 33 26 21 24 30 19 8 7 18 26 32 35 34 29 25 24 23 23 23 22 23 24 23 21 22 24 26 26 25 24 25 19 19
45 44 42 42 40 38 36 36 34 36 36 32 33 32 30 33 29 19 7 17 30 35 41 37 33 28 26 23 22 22 23 26 25 24 24 23 23 24 22 23 17 16 23
41 41 37 35 35 35 34 33 35 36 37 36 35 38 37 24 23 27 29 27 26 29 32 30 30 28 28 26 24 24 28 29 27 25 25 25 24 24 22 18 16 18 27
39 37 35 31 30 31 30 32 35 33 31 32 31 31 32 31 35 34 33 30 24 24 22 23 23 25 24 24 27 30 30 31 31 29 29 26 25 26 25 24 25 29 30
39 35 33 33 32 31 32 32 33 33 31 31 32 33 32 31 31 31 29 22 17 11 14 20 24 23 18 20 27 24 20 21 20 21 23 26 28 29 30 31 32 34 37
38 36 34 36 36 37 37 37 37 38 35 33 33 32 32 31 31 32 32 30 26 7 6 8 17 22 17 19 17 15 14 12 14 17 19 21 22 23 25 27 28 32 35
37 38 36 35 37 38 39 41 42 40 38 36 35 34 34 32 33 33 32 31 30 29 22 19 24 13 14 11 12 13 12 10 12 14 15 16 18 20 20 22 25 29 33
34 35 37 36 36 35 33 35 34 33 34 34 34 35 34 32 30 29 29 29 30 31 37 36 33 19 10 8 9 9 10 9 11 12 10 12 14 15 18 21 23 24 26
31 31 30 30 31 32 30 32 31 31 33 33 32 34 32 29 28 27 26 27 27 28 32 30 18 15 13 13 9 7 9 11 11 10 9 13 15 16 17 19 21 23 25
28 30 29 30 29 29 30 32 32 32 32 33 34 34 30 29 24 21 20 22 23 25 26 27 25 17 18 19 15 13 12 14 15 15 14 15 18 18 18 20 23 25 28
27 28 29 30 30 29 28 30 30 30 33 33 33 34 31 30 25 25 26 24 24 26 27 31 32 29 26 20 22 22 21 19 18 18 18 19 23 22 22 23 25 28 29
29 29 30 30 30 30 25 28 30 30 32 32 33 34 32 31 31 31 32 28 31 34 36 37 40 37 34 29 29 35 36 33 25 23 16 16 26 25 27 25 28 30 32
34 34 32 32 32 30 27 26 28 31 32 34 33 33 33 34 34 34 35 35 38 40 41 43 45 46 42 35 38 41 41 42 40 31 31 31 25 26 28 31 29 32 35
36 37 36 37 36 35 31 31 30 35 36 35 34 35 37 37 36 39 40 42 45 46 47 48 52 52 48 42 45 48 46 46 46 43 45 48 38 29 31 29 32 36 35
34 36 36 38 40 40 38 37 37 40 43 41 41 41 42 42 42 44 45 49 51 51 50 53 57 55 50 48 50 52 51 54 53 45 44 47 47 44 30 30 39 33 29
30 33 35 36 38 39 38 40 40 45 49 50 49 49 50 49 46 46 52 54 55 58 53 57 59 57 54 52 54 56 57 55 58 55 49 51 50 43 50 44 29 28 21
24 27 29 31 32 34 33 35 36 41 49 51 52 53 53 54 53 53 55 58 63 62 58 61 62 62 56 55 56 61 61 61 57 58 45 39 46 47 35 37 22 39 46
Wind_Direction_500mb
271 278 286 291 295 296 300 301 302 304 303 301 297 292 286 280 272 267 267 270 267 262 256 252 250 249 249 249 250 250 250 254 258 261 265 268 266 267 268 270 271 271 271
274 284 290 295 298 302 303 302 302 301 301 300 297 294 289 283 275 267 265 266 267 261 251 246 245 243 244 244 245 249 255 261 266 267 268 268 270 270 271 273 275 274 274
275 285 292 297 300 306 304 304 302 301 299 298 296 295 290 284 276 267 258 259 260 259 249 248 250 245 244 249 253 255 258 262 265 269 270 272 273 274 275 278 278 279 278
267 279 288 293 298 301 300 298 297 296 296 295 293 290 287 282 276 270 262 243 251 244 241 239 237 243 245 248 250 252 254 259 260 264 269 272 275 278 280 279 280 281 283
267 278 286 292 298 299 299 296 294 294 294 293 289 285 284 277 272 269 254 228 225 240 241 230 226 228 234 240 244 248 253 257 263 268 270 272 273 276 280 283 284 286 289
270 279 288 294 298 298 296 296 297 294 294 293 288 288 283 273 267 258 244 237 231 232 238 235 227 227 226 230 238 247 253 262 268 273 278 280 281 281 281 287 292 295 296
271 279 287 290 292 291 292 295 295 294 291 288 293 291 284 285 267 240 237 240 236 230 226 227 233 241 237 237 241 246 251 255 262 268 273 274 277 282 290 292 294 296 300
268 276 280 283 284 285 288 289 289 289 289 285 281 283 287 283 268 229 233 234 237 232 229 232 238 244 250 251 246 250 253 256 262 266 268 273 284 290 293 294 294 292 297
269 273 276 279 280 282 283 281 281 281 276 260 273 251 253 238 245 251 243 233 236 236 236 237 251 254 251 252 253 257 260 266 271 272 276 282 284 286 288 290 289 286 309
273 278 281 280 280 280 279 275 273 269 266 258 242 255 236 238 236 225 245 241 241 241 247 248 265 266 254 249 251 256 265 274 275 274 276 281 286 288 286 288 287 309 318
277 279 280 280 279 277 274 269 265 263 257 253 237 233 240 240 239 235 220 226 240 251 255 256 261 256 245 239 253 268 276 280 278 277 278 281 287 287 284 293 300 306 303
274 278 281 279 277 274 271 268 264 261 258 255 245 241 242 232 217 225 230 232 236 253 259 250 248 241 237 236 258 276 280 281 275 277 281 281 285 288 288 309 305 304 294
271 276 278 280 276 270 264 262 261 265 259 256 253 247 243 239 232 235 238 243 253 248 252 235 234 228 232 242 272 283 283 279 275 275 277 283 288 289 292 296 306 299 297
265 269 275 277 274 269 268 263 261 260 258 257 255 250 250 248 246 246 247 248 260 265 280 230 216 224 233 272 286 287 289 285 281 276 279 285 287 288 290 292 292 298 294
266 270 270 269 266 266 268 268 265 264 262 256 253 254 254 253 253 254 252 248 245 242 228 259 223 224 247 285 290 294 298 292 290 289 290 292 295 299 303 301 301 302 303
268 270 271 266 265 264 265 265 261 260 256 253 252 252 253 253 254 253 252 249 242 239 242 239 214 242 273 272 291 303 306 314 307 310 313 316 317 322 325 324 315 310 310
270 271 272 269 266 263 262 261 259 254 253 251 250 250 252 253 251 249 249 249 246 241 249 252 252 269 259 259 274 298 310 322 323 326 332 341 335 326 330 330 331 328 325
271 273 272 269 266 264 261 260 257 253 252 251 250 249 250 247 244 246 249 250 250 249 251 263 257 262 266 271 267 273 280 295 312 312 318 333 334 326 325 331 331 329 330
271 272 271 270 270 269 266 258 254 251 253 251 249 247 243 237 236 244 252 255 255 252 254 265 278 276 280 285 273 282 278 275 292 302 291 315 321 317 313 319 321 323 327
266 270 271 270 269 270 269 264 255 251 251 249 248 246 237 233 236 248 255 259 264 263 265 274 283 288 290 290 292 291 286 286 286 290 287 284 309 305 304 304 314 319 319
262 263 266 269 271 269 267 267 263 257 253 251 249 244 237 237 244 248 252 259 265 268 270 276 280 285 285 291 296 295 299 302 302 298 278 276 295 300 305 300 305 313 315
261 261 263 265 265 267 271 271 267 259 256 251 248 243 241 242 246 252 258 261 263 265 269 272 277 278 282 288 288 290 297 303 310 305 303 294 304 300 300 304 300 312 310
262 262 262 264 266 266 263 262 261 260 256 253 247 244 247 250 254 258 261 262 261 264 268 272 274 277 283 285 285 285 290 291 291 298 305 300 309 306 306 302 300 309 303
265 267 266 265 265 264 261 258 256 257 259 257 254 254 255 257 259 261 262 261 262 263 266 270 273 277 278 279 278 280 283 283 287 289 294 295 302 308 307 307 306 302 297
270 273 272 269 268 267 263 261 257 256 259 261 261 261 262 262 261 265 266 265 264 264 266 267 270 272 273 273 275 275 275 280 285 288 291 295 301 302 307 312 306 298 298
273 273 271 272 272 272 269 264 257 256 260 263 265 265 264 268 270 269 268 267 266 265 268 270 270 271 269 267 268 268 272 272 275 280 287 284 294 299 306 300 299 300 302
Wind_Speed_850mb
26 26 27 30 31 34 35 36 38 39 40 39 38 36 34 33 34 36 40 41 37 35 35 38 39 39 40 41 41 44 48 51 50 48 48 47 44 44 46 47 46 47 47
26 28 29 31 32 34 35 37 38 39 39 39 39 37 36 32 32 34 34 38 33 33 31 36 36 37 36 39 41 42 43 44 41 41 40 39 40 39 41 43 43 44 47
27 26 27 28 31 32 35 37 39 40 40 37 37 37 36 32 31 30 30 34 31 28 32 35 33 35 38 38 38 36 36 34 34 32 31 30 31 31 31 33 34 36 38
26 26 27 30 34 35 39 41 40 40 40 39 38 35 34 34 32 31 27 26 29 27 26 26 26 27 29 29 28 26 27 26 25 25 25 25 26 27 29 29 31 33 35
28 28 30 33 36 37 37 37 37 39 39 39 39 37 33 32 33 31 25 26 34 33 31 25 24 23 22 22 22 22 21 21 23 24 26 26 24 25 26 25 25 26 29
32 33 35 38 40 38 35 34 34 35 38 39 40 36 33 31 31 29 26 30 35 36 34 24 23 21 20 18 17 18 19 22 25 25 26 25 23 22 23 24 26 30 33
37 37 38 41 42 39 36 37 38 37 34 33 37 27 23 23 26 23 28 30 29 31 29 25 22 20 20 21 19 21 23 24 22 23 24 23 22 22 25 28 31 31 32
40 40 42 41 40 40 39 39 39 36 33 28 24 22 11 16 21 27 33 30 30 28 29 25 22 21 22 22 22 25 24 23 24 23 22 22 22 24 27 30 31 29 27
43 41 41 41 42 44 41 39 37 35 30 25 24 17 9 5 4 18 29 32 33 30 29 23 20 21 23 23 23 22 23 24 24 21 20 21 23 26 27 27 29 25 19
40 43 44 44 43 41 40 36 34 35 33 26 21 24 30 19 8 7 18 26 32 35 34 29 25 24 23 23 23 22 23 24 23 21 22 24 26 26 25 24 25 19 19
45 44 42 42 40 38 36 36 34 36 36 32 33 32 30 33 29 19 7 17 30 35 41 37 33 28 26 23 22 22 23 26 25 24 24 23 23 24 22 23 17 16 23
41 41 37 35 35 35 34 33 35 36 37 36 35 38 37 24 23 27 29 27 26 29 32 30 30 28 28 26 24 24 28 29 27 25 25 25 24 24 22 18 16 18 27
39 37 35 31 30 31 30 32 35 33 31 32 31 31 32 31 35 34 33 30 24 24 22 23 23 25 24 24 27 30 30 31 31 29 29 26 25 26 25 24 25 29 30
39 35 33 33 32 31 32 32 33 33 31 31 32 33 32 31 31 31 29 22 17 11 14 20 24 23 18 20 27 24 20 21 20 21 23 26 28 29 30 31 32 34 37
38 36 34 36 36 37 37 37 37 38 35 33 33 32 32 31 31 32 32 30 26 7 6 8 17 22 17 19 17 15 14 12 14 17 19 21 22 23 25 27 28 32 35
37 38 36 35 37 38 39 41 42 40 38 36 35 34 34 32 33 33 32 31 30 29 22 19 24 13 14 11 12 13 12 10 12 14 15 16 18 20 20 22 25 29 33
34 35 37 36 36 35 33 35 34 33 34 34 34 35 34 32 30 29 29 29 30 31 37 36 33 19 10 8 9 9 10 9 11 12 10 12 14 15 18 21 23 24 26
31 31 30 30 31 32 30 32 31 31 33 33 32 34 32 29 28 27 26 27 27 28 32 30 18 15 13 13 9 7 9 11 11 10 9 13 15 16 17 19 21 23 25
28 30 29 30 29 29 30 32 32 32 32 33 34 34 30 29 24 21 20 22 23 25 26 27 25 17 18 19 15 13 12 14 15 15 14 15 18 18 18 20 23 25 28
27 28 29 30 30 29 28 30 30 30 33 33 33 34 31 30 25 25 26 24 24 26 27 31 32 29 26 20 22 22 21 19 18 18 18 19 23 22 22 23 25 28 29
29 29 30 30 30 30 25 28 30 30 32 32 33 34 32 31 31 31 32 28 31 34 36 37 40 37 34 29 29 35 36 33 25 23 16 16 26 25 27 25 28 30 32
34 34 32 32 32 30 27 26 28 31 32 34 33 33 33 34 34 34 35 35 38 40 41 43 45 46 42 35 38 41 41 42 40 31 31 31 25 26 28 31 29 32 35
36 37 36 37 36 35 31 31 30 35 36 35 34 35 37 37 36 39 40 42 45 46 47 48 52 52 48 42 45 48 46 46 46 43 45 48 38 29 31 29 32 36 35
34 36 36 38 40 40 38 37 37 40 43 41 41 41 42 42 42 44 45 49 51 51 50 53 57 55 50 48 50 52 51 54 53 45 44 47 47 44 30 30 39 33 29
30 33 35 36 38 39 38 40 40 45 49 50 49 49 50 49 46 46 52 54 55 58 53 57 59 57 54 52 54 56 57 55 58 55 49 51 50 43 50 44 29 28 21
24 27 29 31 32 34 33 35 36 41 49 51 52 53 53 54 53 53 55 58 63 62 58 61 62 62 56 55 56 61 61 61 57 58 45 39 46 47 35 37 22 39 46
Wind_Direction_850mb
271 278 286 291 295 296 300 301 302 304 303 301 297 292 286 280 272 267 267 270 267 262 256 252 250 249 249 249 250 250 250 254 258 261 265 268 266 267 268 270 271 271 271
274 284 290 295 298 302 303 302 302 301 301 300 297 294 289 283 275 267 265 266 267 261 251 246 245 243 244 244 245 249 255 261 266 267 268 268 270 270 271 273 275 274 274
275 285 292 297 300 306 304 304 302 301 299 298 296 295 290 284 276 267 258 259 260 259 249 248 250 245 244 249 253 255 258 262 265 269 270 272 273 274 275 278 278 279 278
267 279 288 293 298 301 300 298 297 296 296 295 293 290 287 282 276 270 262 243 251 244 241 239 237 243 245 248 250 252 254 259 260 264 269 272 275 278 280 279 280 281 283
267 278 286 292 298 299 299 296 294 294 294 293 289 285 284 277 272 269 254 228 225 240 241 230 226 228 234 240 244 248 253 257 263 268 270 272 273 276 280 283 284 286 289
270 279 288 294 298 298 296 296 297 294 294 293 288 288 283 273 267 258 244 237 231 232 238 235 227 227 226 230 238 247 253 262 268 273 278 280 281 281 281 287 292 295 296
271 279 287 290 292 291 292 295 295 294 291 288 293 291 284 285 267 240 237 240 236 230 226 227 233 241 237 237 241 246 251 255 262 268 273 274 277 282 290 292 294 296 300
268 276 280 283 284 285 288 289 289 289 289 285 281 283 287 283 268 229 233 234 237 232 229 232 238 244 250 251 246 250 253 256 262 266 268 273 284 290 293 294 294 292 297
269 273 276 279 280 282 283 281 281 281 276 260 273 251 253 238 245 251 243 233 236 236 236 237 251 254 251 252 253 257 260 266 271 272 276 282 284 286 288 290 289 286 309
273 278 281 280 280 280 279 275 273 269 266 258 242 255 236 238 236 225 245 241 241 241 247 248 265 266 254 249 251 256 265 274 275 274 276 281 286 288 286 288 287 309 318
277 279 280 280 279 277 274 269 265 263 257 253 237 233 240 240 239 235 220 226 240 251 255 256 261 256 245 239 253 268 276 280 278 277 278 281 287 287 284 293 300 306 303
274 278 281 279 277 274 271 268 264 261 258 255 245 241 242 232 217 225 230 232 236 253 259 250 248 241 237 236 258 276 280 281 275 277 281 281 285 288 288 309 305 304 294
271 276 278 280 276 270 264 262 261 265 259 256 253 247 243 239 232 235 238 243 253 248 252 235 234 228 232 242 272 283 283 279 275 275 277 283 288 289 292 296 306 299 297
265 269 275 277 274 269 268 263 261 260 258 257 255 250 250 248 246 246 247 248 260 265 280 230 216 224 233 272 286 287 289 285 281 276 279 285 287 288 290 292 292 298 294
266 270 270 269 266 266 268 268 265 264 262 256 253 254 254 253 253 254 252 248 245 242 228 259 223 224 247 285 290 294 298 292 290 289 290 292 295 299 303 301 301 302 303
268 270 271 266 265 264 265 265 261 260 256 253 252 252 253 253 254 253 252 249 242 239 242 239 214 242 273 272 291 303 306 314 307 310 313 316 317 322 325 324 315 310 310
270 271 272 269 266 263 262 261 259 254 253 251 250 250 252 253 251 249 249 249 246 241 249 252 252 269 259 259 274 298 310 322 323 326 332 341 335 326 330 330 331 328 325
271 273 272 269 266 264 261 260 257 253 252 251 250 249 250 247 244 246 249 250 250 249 251 263 257 262 266 271 267 273 280 295 312 312 318 333 334 326 325 331 331 329 330
271 272 271 270 270 269 266 258 254 251 253 251 249 247 243 237 236 244 252 255 255 252 254 265 278 276 280 285 273 282 278 275 292 302 291 315 321 317 313 319 321 323 327
266 270 271 270 269 270 269 264 255 251 251 249 248 246 237 233 236 248 255 259 264 263 265 274 283 288 290 290 292 291 286 286 286 290 287 284 309 305 304 304 314 319 319
262 263 266 269 271 269 267 267 263 257 253 251 249 244 237 237 244 248 252 259 265 268 270 276 280 285 285 291 296 295 299 302 302 298 278 276 295 300 305 300 305 313 315
261 261 263 265 265 267 271 271 267 259 256 251 248 243 241 242 246 252 258 261 263 265 269 272 277 278 282 288 288 290 297 303 310 305 303 294 304 300 300 304 300 312 310
262 262 262 264 266 266 263 262 261 260 256 253 247 244 247 250 254 258 261 262 261 264 268 272 274 277 283 285 285 285 290 291 291 298 305 300 309 306 306 302 300 309 303
265 267 266 265 265 264 261 258 256 257 259 257 254 254 255 257 259 261 262 261 262 263 266 270 273 277 278 279 278 280 283 283 287 289 294 295 302 308 307 307 306 302 297
270 273 272 269 268 267 263 261 257 256 259 261 261 261 262 262 261 265 266 265 264 264 266 267 270 272 273 273 275 275 275 280 285 288 291 295 301 302 307 312 306 298 298
273 273 271 272 272 272 269 264 257 256 260 263 265 265 264 268 270 269 268 267 266 265 268 270 270 271 269 267 268 268 272 272 275 280 287 284 294 299 306 300 299 300 302